Regional Weather Roundup
Issued by NWS Columbia, SC

Home | Current Version | Previous Version | Text Only | Print | Product List | Glossary On
Versions: 1 2 3 4 5 6 7 8 9 10 11 12 13 14 15 16 17 18 19 20 21 22 23 24 25 26 27 28 29 30 31 32 33 34 35 36 37 38 39 40 41 42 43 44 45 46 47 48 49 50
000
ASUS42 KCAE 020210
RWRCAE
REGIONAL WEATHER ROUNDUP
NATIONAL WEATHER SERVICE COLUMBIA SC
900 PM EST SUN FEB 01 2015

NOTE: "FAIR" INDICATES FEW OR NO CLOUDS BELOW 12,000 FEET WITH NO
SIGNIFICANT WEATHER AND/OR OBSTRUCTIONS TO VISIBILITY.

NOT ALL STATIONS ARE QUALITY CONTROLLED BY THE NATIONAL
WEATHER SERVICE. USE DATA WITH CAUTION...ESPECIALLY
DEWPOINT OBSERVATIONS.

SCZ001>056-GAZ040-063>065-077-020300-
...UPSTATE SOUTH CAROLINA...

CITY           SKY/WX    TMP DP  RH WIND       PRES   REMARKS
ANDERSON       RAIN      46  45  96 E3        29.89F FOG
LIBERTY        HVY RAIN  45  38  78 MISG      29.89F
SPARTANBURG    LGT RAIN  52 N/A N/A CALM      29.88F
CLEMSON        HVY RAIN  47  44  90 N3        29.90F FOG
GREENVILLE     RAIN      47  45  93 CALM      29.90F FOG
GREENWOOD      LGT RAIN  54  49  83 S7        29.90F
GREER          RAIN      46  45  96 CALM      29.89F FOG
ROCK HILL      LGT RAIN  54  46  74 VRB7      29.89F
CHESTER        LGT RAIN  55  46  71 S8        29.89F
LAURENS        RAIN      52  52 100 S7        29.89F


...CENTRAL SOUTH CAROLINA...

CITY           SKY/WX    TMP DP  RH WIND       PRES   REMARKS
COLUMBIA APT   CLOUDY    61  48  62 S13       29.94F
COLUMBIA OWENS CLOUDY    62  47  57 S12       29.96F
DARLINGTON     CLOUDY    59  45  58 S13G21    29.97F
FLORENCE       CLOUDY    59  47  64 S12       29.98F
MCENTIRE ANGB  CLOUDY    60  48  65 S12       29.96F
ORANGEBURG     LGT RAIN  60  49  66 S14G23    29.97F
SUMTER SHAW    CLOUDY    60  49  66 S12G21    29.95F
NEWBERRY       RAIN      57  45  62 S6        29.92F
AIKEN          MOCLDY    61  46  59 S12       29.98S
BARNWELL       MOCLDY    61  52  72 S8        29.97F
MANNING        FAIR      61  10  13 S6        30.00F
CAMDEN         FAIR      59  46  63 S9        29.95F
LANCASTER      CLOUDY    59  45  58 S12       29.91F
WINNSBORO      CLOUDY    59  46  63 S12G21    29.92F


...EASTERN AND COASTAL SOUTH CAROLINA...

CITY           SKY/WX    TMP DP  RH WIND       PRES   REMARKS
N MYRTLE BCH   CLOUDY    57  51  80 S12       30.02F
CONWAY         MOCLDY    55  50  82 S3        30.03F
MARION         FAIR      57  45  62 CALM      30.02F
HARTSVILLE     FAIR      59  52  77 S7        29.97F
FLORENCE       CLOUDY    59  47  64 S12       29.98F
DARLINGTON     CLOUDY    59  45  58 S13G21    29.97F
CHARLESTON APT CLOUDY    60  54  80 S6        30.02F
MOUNT PLEASANT FAIR      59  57  94 S9        30.02F
BEAUFORT       MOCLDY    60  52  74 S9        30.02F


...EASTERN GEORGIA...

CITY           SKY/WX    TMP DP  RH WIND       PRES   REMARKS
AUGUSTA BUSH F LGT RAIN  60  48  64 S9        29.95F
AUGUSTA DANIEL LGT RAIN  62  48  60 S9        29.95S
THOMSON        CLOUDY    60  55  83 S5        29.97F
WASHINGTON     LGT RAIN  59  57  94 S9        29.90F
CLAXTON        FAIR      61  54  77 S5        29.98F
SYLVANIA       CLOUDY    61  54  76 S5        29.99S
STATESBORO     LGT RAIN  60  53  79 S9        29.97F
SAVANNAH       CLOUDY    60  51  72 S13       30.02F


...SOUTHERN NORTH CAROLINA...

CITY           SKY/WX    TMP DP  RH WIND       PRES   REMARKS
CHARLOTTE      LGT RAIN  55  44  66 S13       29.89F
MONROE         CLOUDY    57  44  62 S8        29.90F
WADESBORO      CLOUDY    59  45  60 S13       29.92F
ROCKINGHAM       N/A     57  45  64 S14G20    29.94F
RUTHERFORDTON  LGT RAIN  44  44 100 CALM      29.89F
ASHEVILLE      LGT RAIN  44  43  96 S6        29.86F FOG

$$


USA.gov is the U.S. government's official web portal to all federal, state and local government web resources and services.